• In Czech Republic
  • List of Countries
  • For 7 days
  • Water Temperature
  • Satellite Maps
  • Weather Map
  • Weather Widgets
  • user-avatar
    Login

    Hourly Weather Kalat

    Today, 17 December, Sunday

    Time Temperature Precipitation Wind Pressure Humidity
    00:00 -19°C° 0 mm 3 mps 470 mmHg 67%
    01:00 -19°C° 0 mm 3 mps 470 mmHg 66%
    02:00 -19°C° 0 mm 3 mps 470 mmHg 64%
    03:00 -19°C° 0 mm 3 mps 470 mmHg 64%
    04:00 -19°C° 0 mm 3 mps 470 mmHg 63%
    05:00 -19°C° 0 mm 3 mps 470 mmHg 63%
    06:00 -19°C° 0 mm 3 mps 470 mmHg 62%
    07:00 -18°C° 0 mm 3 mps 471 mmHg 62%
    08:00 -18°C° 0 mm 3 mps 471 mmHg 62%
    09:00 -16°C° 0 mm 3 mps 472 mmHg 62%
    10:00 -14°C° 0 mm 3 mps 473 mmHg 62%
    11:00 -12°C° 0 mm 3 mps 475 mmHg 63%
    12:00 -10°C° 0 mm 3 mps 475 mmHg 63%
    13:00 -10°C° 0 mm 3 mps 475 mmHg 64%
    14:00 -9°C° 0 mm 3 mps 475 mmHg 65%
    15:00 -12°C° 0 mm 3 mps 474 mmHg 70%
    16:00 -12°C° 0 mm 2 mps 473 mmHg 74%
    17:00 -13°C° 0 mm 2 mps 472 mmHg 79%
    18:00 -15°C° 0 mm 3 mps 472 mmHg 78%
    19:00 -15°C° 0 mm 3 mps 472 mmHg 78%
    20:00 -15°C° 0 mm 3 mps 472 mmHg 77%
    21:00 -15°C° 0 mm 3 mps 473 mmHg 78%
    22:00 -15°C° 0 mm 3 mps 473 mmHg 78%
    23:00 -15°C° 0 mm 3 mps 473 mmHg 79%

    Tomorrow, 18 December, Monday

    Time Temperature Precipitation Wind Pressure Humidity
    00:00 -16°C° 0 mm 3 mps 473 mmHg 79%
    01:00 -16°C° 0 mm 3 mps 472 mmHg 79%
    02:00 -16°C° 0 mm 3 mps 472 mmHg 79%
    03:00 -17°C° 0 mm 3 mps 472 mmHg 78%
    04:00 -17°C° 0 mm 3 mps 472 mmHg 77%
    05:00 -17°C° 0 mm 3 mps 471 mmHg 76%
    06:00 -17°C° 0 mm 3 mps 472 mmHg 74%
    07:00 -17°C° 0 mm 3 mps 472 mmHg 73%
    08:00 -17°C° 0 mm 3 mps 472 mmHg 71%
    09:00 -15°C° 0 mm 3 mps 474 mmHg 70%
    10:00 -12°C° 0 mm 3 mps 475 mmHg 68%
    11:00 -9°C° 0 mm 3 mps 476 mmHg 66%
    12:00 -9°C° 0 mm 3 mps 476 mmHg 66%
    13:00 -7°C° 0 mm 2 mps 476 mmHg 66%
    14:00 -7°C° 0 mm 2 mps 476 mmHg 66%
    15:00 -8°C° 0 mm 2 mps 475 mmHg 70%
    16:00 -10°C° 0 mm 2 mps 474 mmHg 74%
    17:00 -12°C° 0 mm 2 mps 473 mmHg 78%
    18:00 -12°C° 0 mm 2 mps 473 mmHg 78%
    19:00 -13°C° 0 mm 2 mps 473 mmHg 78%
    20:00 -14°C° 0 mm 3 mps 473 mmHg 78%
    21:00 -14°C° 0 mm 3 mps 473 mmHg 78%
    22:00 -15°C° 0 mm 3 mps 473 mmHg 78%
    23:00 -15°C° 0 mm 3 mps 473 mmHg 78%

    Day after tomorrow, 19 December, Tuesday

    Time Temperature Precipitation Wind Pressure Humidity
    00:00 -15°C° 0 mm 3 mps 473 mmHg 78%
    01:00 -15°C° 0 mm 3 mps 473 mmHg 78%
    02:00 -15°C° 0 mm 3 mps 473 mmHg 78%
    03:00 -15°C° 0 mm 3 mps 473 mmHg 78%
    04:00 -15°C° 0 mm 3 mps 473 mmHg 79%
    05:00 -14°C° 0 mm 3 mps 472 mmHg 79%
    06:00 -14°C° 0 mm 3 mps 473 mmHg 78%
    07:00 -14°C° 0 mm 3 mps 473 mmHg 78%
    08:00 -14°C° 0 mm 3 mps 474 mmHg 77%
    09:00 -12°C° 0 mm 3 mps 475 mmHg 75%
    10:00 -10°C° 0 mm 3 mps 476 mmHg 73%
    11:00 -8°C° 0 mm 3 mps 477 mmHg 71%
    12:00 -8°C° 0 mm 3 mps 476 mmHg 71%
    13:00 -8°C° 0 mm 3 mps 476 mmHg 70%
    14:00 -7°C° 0 mm 3 mps 476 mmHg 70%
    15:00 -8°C° 0 mm 2 mps 475 mmHg 73%
    16:00 -9°C° 0 mm 2 mps 474 mmHg 77%
    17:00 -10°C° 0 mm 2 mps 473 mmHg 80%
    18:00 -12°C° 0 mm 2 mps 473 mmHg 79%
    19:00 -12°C° 0 mm 2 mps 473 mmHg 77%
    20:00 -14°C° 0 mm 3 mps 473 mmHg 76%
    21:00 -14°C° 0 mm 3 mps 473 mmHg 74%
    22:00 -14°C° 0 mm 3 mps 473 mmHg 73%
    23:00 -14°C° 0 mm 3 mps 473 mmHg 72%

    20 December, Wednesday

    Time Temperature Precipitation Wind Pressure Humidity
    00:00 -14°C° 0 mm 3 mps 473 mmHg 71%
    01:00 -14°C° 0 mm 3 mps 473 mmHg 71%
    02:00 -14°C° 0 mm 3 mps 473 mmHg 71%
    03:00 -15°C° 0 mm 3 mps 472 mmHg 71%
    04:00 -15°C° 0 mm 3 mps 472 mmHg 70%
    05:00 -14°C° 0 mm 2 mps 472 mmHg 69%
    06:00 -14°C° 0 mm 2 mps 472 mmHg 69%
    07:00 -15°C° 0 mm 3 mps 472 mmHg 68%
    08:00 -15°C° 0 mm 3 mps 472 mmHg 67%
    09:00 -12°C° 0 mm 2 mps 474 mmHg 65%
    10:00 -10°C° 0 mm 2 mps 475 mmHg 64%
    11:00 -8°C° 0 mm 2 mps 476 mmHg 62%
    12:00 -7°C° 0 mm 2 mps 476 mmHg 62%
    13:00 -7°C° 0 mm 2 mps 476 mmHg 62%
    14:00 -7°C° 0 mm 2 mps 476 mmHg 62%
    15:00 -9°C° 0 mm 2 mps 475 mmHg 66%
    16:00 -10°C° 0 mm 1 mps 473 mmHg 70%
    17:00 -11°C° 0 mm 1 mps 472 mmHg 75%
    18:00 -12°C° 0 mm 1 mps 472 mmHg 74%
    19:00 -14°C° 0 mm 2 mps 472 mmHg 73%
    20:00 -15°C° 0 mm 2 mps 472 mmHg 72%
    21:00 -15°C° 0 mm 2 mps 472 mmHg 71%
    22:00 -15°C° 0 mm 2 mps 472 mmHg 70%
    23:00 -16°C° 0 mm 2 mps 472 mmHg 69%

    21 December, Thursday

    Time Temperature Precipitation Wind Pressure Humidity
    00:00 -16°C° 0 mm 2 mps 472 mmHg 69%
    01:00 -15°C° 0 mm 2 mps 472 mmHg 69%
    02:00 -15°C° 0 mm 2 mps 472 mmHg 69%
    03:00 -15°C° 0 mm 2 mps 472 mmHg 70%
    04:00 -15°C° 0 mm 2 mps 472 mmHg 70%
    05:00 -13°C° 0 mm 1 mps 472 mmHg 71%
    06:00 -13°C° 0 mm 1 mps 472 mmHg 71%
    07:00 -15°C° 0 mm 2 mps 472 mmHg 71%
    08:00 -16°C° 0 mm 2 mps 472 mmHg 71%
    09:00 -12°C° 0 mm 1 mps 474 mmHg 67%
    10:00 -10°C° 0 mm 1 mps 475 mmHg 63%
    11:00 -9°C° 0 mm 1 mps 476 mmHg 59%
    12:00 -8°C° 0 mm 1 mps 476 mmHg 61%
    13:00 -8°C° 0 mm 1 mps 475 mmHg 62%
    14:00 -8°C° 0 mm 1 mps 475 mmHg 63%
    15:00 -10°C° 0 mm 2 mps 474 mmHg 68%
    16:00 -13°C° 0 mm 2 mps 473 mmHg 72%
    17:00 -15°C° 0 mm 2 mps 471 mmHg 76%
    18:00 -16°C° 0 mm 2 mps 471 mmHg 76%
    19:00 -16°C° 0 mm 2 mps 471 mmHg 75%
    20:00 -17°C° 0 mm 2 mps 471 mmHg 74%
    21:00 -17°C° 0 mm 2 mps 471 mmHg 70%
    22:00 -18°C° 0 mm 3 mps 471 mmHg 66%
    23:00 -18°C° 0 mm 3 mps 471 mmHg 62%

    22 December, Friday

    Time Temperature Precipitation Wind Pressure Humidity
    00:00 -18°C° 0 mm 3 mps 470 mmHg 57%
    01:00 -18°C° 0 mm 3 mps 470 mmHg 51%
    02:00 -18°C° 0 mm 3 mps 470 mmHg 45%
    03:00 -18°C° 0 mm 3 mps 470 mmHg 40%
    04:00 -18°C° 0 mm 3 mps 470 mmHg 36%
    05:00 -18°C° 0 mm 3 mps 469 mmHg 32%
    06:00 -18°C° 0 mm 3 mps 470 mmHg 29%
    07:00 -18°C° 0 mm 3 mps 470 mmHg 26%
    08:00 -18°C° 0 mm 3 mps 470 mmHg 24%
    09:00 -14°C° 0 mm 2 mps 472 mmHg 30%
    10:00 -12°C° 0 mm 2 mps 473 mmHg 35%
    11:00 -8°C° 0 mm 2 mps 475 mmHg 41%
    12:00 -6°C° 0 mm 1 mps 475 mmHg 41%
    13:00 -6°C° 0 mm 1 mps 475 mmHg 41%
    14:00 -4°C° 0 mm 1 mps 475 mmHg 41%
    15:00 -7°C° 0 mm 1 mps 473 mmHg 40%
    16:00 -9°C° 0 mm 1 mps 471 mmHg 40%
    17:00 -13°C° 0 mm 2 mps 470 mmHg 39%
    18:00 -14°C° 0 mm 2 mps 470 mmHg 36%
    19:00 -15°C° 0 mm 3 mps 470 mmHg 32%
    20:00 -16°C° 0 mm 3 mps 470 mmHg 29%
    21:00 -15°C° 0 mm 3 mps 470 mmHg 28%
    22:00 -15°C° 0 mm 3 mps 470 mmHg 27%
    23:00 -15°C° 0 mm 3 mps 470 mmHg 26%
    Show more